Location: ?????
(31.8092°N, 35.2590°E)
Time: 03:46:35
(UTC+00:00)

Cosmos 2360 Rocket - Pass Details

Date: 27 October 2021
Orbit: 832 x 846 km, 71.0° (Epoch: 07 December)

Event Time Altitude Azimuth Distance (km) Brightness Sun altitude
Exits shadow 02:42:58 14° 315° (NW) 2,170 3.9 -15.1°
Maximum altitude 02:47:05 34° 257° (WSW) 1,363 2.8 -14.2°
Drops below altitude 10° 02:52:06 10° 194° (SSW) 2,454 4.5 -13.2°
Sets 02:54:44 0° 185° (S) 3,383 5.4 -12.6°
